{"data":{"norad_id":69503,"epoch":"2026-09-20T03:06:07.320960Z","epoch_age_seconds":65430,"freshness":"FRESH","line1":"1 69503U 26132B   26263.12925140  .00001657  00000+0  14032-3 0  9991","line2":"2 69503  97.6852 325.5712 0010599 319.5203  40.5231 14.99340021 15008","mean_motion":14.99340021,"eccentricity":0.0010599,"inclination_deg":97.6852,"raan_deg":325.5712,"arg_perigee_deg":319.5203,"mean_anomaly_deg":40.5231,"bstar":0.00014032,"rev_number":1500,"period_min":96.042257248598,"perigee_km":561.57103703121,"apogee_km":576.29743864118,"semimajor_km":6947.0712378362,"source":"CELESTRAK","updated_at":"2026-09-20T09:00:24.937547Z"}}